Location: Ferques
(50.8300°N, 1.7599°E)
Time: 07:00:15
(UTC+00:00)

CENTAUR R/B - Pass Details

Date: 19 May 2025
Orbit: 644 x 1537 km, 63.4° (Epoch: 18 June)

Event Time Altitude Azimuth Distance (km) Brightness Sun altitude
Rises 23:11:53 0° 314° (NW) 4,050 6.6 -18.7°
Reaches altitude 10° 23:14:27 10° 316° (NW) 3,200 6.0 -18.8°
Maximum altitude 23:22:28 77° 43° (NE) 1,440 3.4 -18.9°
Enters shadow 23:31:30 11° 130° (SE) 3,594 5.0 -19.1°
